| time (UTC) | temp F | wind direction | speed MPH | gust MPH | rain 1hr in | rain 24hr in | rain mn in | humidity % | barometer mb |
| 20260508233117 | 50 | 0 | 0.0 | 1.0 | 0.01 | 0.08 | 0.08 | 82 | 1008.9 |
| 20260508231559 | 50 | 0 | 0.0 | 1.0 | 0.01 | 0.08 | 0.08 | 81 | 1008.8 |
| 20260508230105 | 51 | 0 | 0.0 | 1.0 | 0.01 | 0.08 | 0.08 | 80 | 1009.2 |
| 20260508224559 | 51 | 0 | 0.0 | 4.0 | 0.01 | 0.08 | 0.08 | 78 | 1009.5 |
| 20260508223055 | 51 | 0 | 0.0 | 3.0 | 0.00 | 0.07 | 0.07 | 77 | 1009.3 |
| 20260508221557 | 52 | 0 | 0.0 | 8.0 | 0.00 | 0.07 | 0.07 | 74 | 1009.3 |
| 20260508220056 | 52 | 360 | 2.0 | 9.0 | 0.00 | 0.07 | 0.07 | 73 | 1009.3 |
| 20260508214556 | 53 | 360 | 1.0 | 6.0 | 0.00 | 0.07 | 0.07 | 71 | 1009.4 |
| 20260508213057 | 54 | 331 | 3.0 | 8.0 | 0.00 | 0.07 | 0.07 | 68 | 1009.4 |
| 20260508211558 | 54 | 0 | 2.0 | 5.0 | 0.00 | 0.07 | 0.07 | 68 | 1009.5 |
| 20260508210055 | 54 | 311 | 3.0 | 9.0 | 0.00 | 0.07 | 0.07 | 66 | 1009.4 |
| 20260508204602 | 55 | 51 | 1.0 | 9.0 | 0.00 | 0.07 | 0.07 | 68 | 1009.3 |
| 20260508203058 | 55 | 0 | 2.0 | 9.0 | 0.00 | 0.07 | 0.07 | 70 | 1009.5 |
| 20260508201558 | 55 | 360 | 6.0 | 16.0 | 0.00 | 0.07 | 0.07 | 68 | 1009.5 |
| 20260508200111 | 56 | 15 | 3.0 | 13.0 | 0.00 | 0.07 | 0.07 | 69 | 1009.5 |
| 20260508194558 | 55 | 342 | 4.0 | 12.0 | 0.01 | 0.07 | 0.07 | 73 | 1009.6 |
| 20260508193140 | 54 | 360 | 2.0 | 6.0 | 0.02 | 0.07 | 0.07 | 73 | 1009.7 |
| 20260508191559 | 54 | 125 | 1.0 | 3.0 | 0.03 | 0.07 | 0.07 | 75 | 1009.9 |
| 20260508190056 | 54 | 17 | 1.0 | 7.0 | 0.03 | 0.07 | 0.07 | 75 | 1010.3 |
| 20260508184606 | 54 | 341 | 0.0 | 5.0 | 0.02 | 0.06 | 0.06 | 74 | 1010.1 |
| 20260508183124 | 56 | 346 | 2.0 | 11.0 | 0.01 | 0.05 | 0.05 | 66 | 1010.2 |
| 20260508181605 | 58 | 23 | 2.0 | 8.0 | 0.00 | 0.04 | 0.04 | 60 | 1009.7 |
| 20260508180100 | 58 | 332 | 1.0 | 9.0 | 0.00 | 0.04 | 0.04 | 60 | 1009.6 |
| 20260508174603 | 58 | 90 | 1.0 | 5.0 | 0.00 | 0.04 | 0.04 | 61 | 1009.6 |
| 20260508173056 | 58 | 0 | 2.0 | 10.0 | 0.00 | 0.04 | 0.04 | 59 | 1009.8 |
| 20260508171558 | 57 | 5 | 1.0 | 6.0 | 0.00 | 0.04 | 0.04 | 64 | 1009.9 |
| 20260508170101 | 56 | 221 | 2.0 | 9.0 | 0.00 | 0.04 | 0.04 | 64 | 1010.4 |
| 20260508164559 | 57 | 51 | 4.0 | 9.0 | 0.00 | 0.04 | 0.04 | 60 | 1010.3 |
| 20260508163059 | 57 | 355 | 2.0 | 9.0 | 0.00 | 0.04 | 0.04 | 66 | 1010.4 |
| 20260508161557 | 55 | 157 | 1.0 | 7.0 | 0.00 | 0.04 | 0.04 | 68 | 1010.8 |
| 20260508160057 | 54 | 71 | 1.0 | 8.0 | 0.00 | 0.04 | 0.04 | 71 | 1011.0 |
| 20260508154615 | 53 | 26 | 2.0 | 8.0 | 0.01 | 0.04 | 0.04 | 72 | 1011.3 |
| 20260508153057 | 51 | 171 | 1.0 | 4.0 | 0.01 | 0.04 | 0.04 | 75 | 1011.4 |
| 20260508151605 | 49 | 53 | 1.0 | 4.0 | 0.01 | 0.04 | 0.04 | 77 | 1011.3 |
| 20260508150056 | 49 | 0 | 0.0 | 4.0 | 0.01 | 0.04 | 0.04 | 78 | 1011.3 |
| 20260508144607 | 49 | 0 | 2.0 | 6.0 | 0.01 | 0.03 | 0.03 | 75 | 1011.9 |
| 20260508143105 | 49 | 130 | 1.0 | 6.0 | 0.01 | 0.03 | 0.03 | 75 | 1011.4 |
| 20260508141604 | 49 | 173 | 1.0 | 6.0 | 0.01 | 0.03 | 0.03 | 76 | 1011.4 |
| 20260508140057 | 49 | 106 | 2.0 | 6.0 | 0.01 | 0.03 | 0.03 | 74 | 1011.5 |
| 20260508134621 | 51 | 0 | 1.0 | 7.0 | 0.00 | 0.02 | 0.02 | 68 | 1011.7 |
| 20260508133102 | 51 | 142 | 1.0 | 6.0 | 0.00 | 0.02 | 0.02 | 68 | 1011.2 |
| 20260508131556 | 49 | 174 | 2.0 | 7.0 | 0.00 | 0.02 | 0.02 | 70 | 1011.3 |
| 20260508130055 | 49 | 174 | 1.0 | 6.0 | 0.00 | 0.02 | 0.02 | 70 | 1011.3 |
| 20260508124602 | 48 | 84 | 1.0 | 6.0 | 0.00 | 0.02 | 0.02 | 72 | 1011.1 |
| 20260508123056 | 48 | 344 | 1.0 | 10.0 | 0.01 | 0.02 | 0.02 | 73 | 1011.2 |
| 20260508121557 | 46 | 175 | 2.0 | 8.0 | 0.01 | 0.02 | 0.02 | 75 | 1011.3 |
| 20260508120100 | 43 | 263 | 0.0 | 3.0 | 0.01 | 0.02 | 0.02 | 85 | 1011.2 |
| 20260508114557 | 41 | 0 | 0.0 | 2.0 | 0.01 | 0.02 | 0.02 | 89 | 1011.0 |
| 20260508113107 | 40 | 0 | 0.0 | 0.0 | 0.00 | 0.01 | 0.01 | 88 | 1010.8 |
| 20260508111557 | 39 | 0 | 0.0 | 0.0 | 0.00 | 0.01 | 0.01 | 88 | 1010.8 |
| 20260508104556 | 38 | 0 | 0.0 | 0.0 | 0.00 | 0.01 | 0.01 | 87 | 1010.6 |
| 20260508103059 | 39 | 0 | 0.0 | 0.0 | 0.00 | 0.01 | 0.01 | 86 | 1010.5 |
| 20260508101558 | 39 | 0 | 0.0 | 0.0 | 0.00 | 0.01 | 0.01 | 86 | 1010.5 |
| 20260508100109 | 40 | 0 | 0.0 | 0.0 | 0.00 | 0.01 | 0.01 | 87 | 1010.5 |
| 20260508094606 | 40 | 0 | 0.0 | 0.0 | 0.00 | 0.01 | 0.01 | 87 | 1010.7 |
| 20260508093056 | 39 | 0 | 0.0 | 0.0 | 0.01 | 0.01 | 0.01 | 87 | 1010.8 |
| 20260508091605 | 39 | 0 | 0.0 | 0.0 | 0.01 | 0.01 | 0.01 | 87 | 1011.1 |
| 20260508090113 | 38 | 0 | 0.0 | 0.0 | 0.01 | 0.01 | 0.01 | 87 | 1011.1 |
| 20260508084554 | 38 | 0 | 0.0 | 0.0 | 0.01 | 0.01 | 0.01 | 87 | 1011.3 |
| 20260508083056 | 38 | 0 | 0.0 | 1.0 | 0.00 | 0.00 | 0.00 | 86 | 1011.1 |
| 20260508081606 | 37 | 0 | 0.0 | 1.0 | 0.00 | 0.00 | 0.00 | 87 | 1011.0 |
| 20260508080055 | 37 | 0 | 0.0 | 2.0 | 0.00 | 0.00 | 0.00 | 86 | 1011.0 |
| 20260508074600 | 37 | 104 | 0.0 | 1.0 | 0.00 | 0.00 | 0.00 | 86 | 1010.8 |
| 20260508073112 | 36 | 0 | 0.0 | 1.0 | 0.00 | 0.00 | 0.00 | 86 | 1011.0 |
| 20260508071607 | 36 | 0 | 0.0 | 1.0 | 0.00 | 0.00 | 0.00 | 86 | 1011.0 |
| 20260508064622 | 35 | 0 | 0.0 | 1.0 | 0.00 | 0.00 | 0.00 | 86 | 1011.1 |
| 20260508063112 | 35 | 0 | 0.0 | 1.0 | 0.00 | 0.00 | 0.00 | 86 | 1011.3 |
| 20260508061610 | 34 | 0 | 0.0 | 1.0 | 0.00 | 0.00 | 0.00 | 85 | 1011.3 |
| 20260508060111 | 35 | 0 | 0.0 | 1.0 | 0.00 | 0.00 | 0.00 | 85 | 1011.3 |
| 20260508054559 | 35 | 104 | 0.0 | 2.0 | 0.00 | 0.00 | 0.00 | 85 | 1011.4 |
| 20260508053100 | 35 | 0 | 0.0 | 1.0 | 0.00 | 0.00 | 0.00 | 85 | 1011.6 |
| 20260508051614 | 34 | 104 | 0.0 | 1.0 | 0.00 | 0.00 | 0.00 | 84 | 1011.6 |
| 20260508050104 | 34 | 0 | 0.0 | 1.0 | 0.00 | 0.00 | 0.00 | 84 | 1011.7 |
| 20260508044557 | 34 | 0 | 0.0 | 0.0 | 0.00 | 0.00 | 0.00 | 82 | 1011.7 |
| 20260508043055 | 34 | 0 | 0.0 | 0.0 | 0.00 | 0.00 | 0.00 | 79 | 1011.5 |
| 20260508041602 | 34 | 0 | 0.0 | 0.0 | 0.00 | 0.00 | 0.00 | 78 | 1011.5 |
| 20260508040105 | 35 | 0 | 0.0 | 0.0 | 0.00 | 0.00 | 0.00 | 78 | 1011.4 |
| 20260508034601 | 35 | 0 | 0.0 | 0.0 | 0.00 | 0.00 | 0.00 | 79 | 1011.3 |
| 20260508033101 | 36 | 0 | 0.0 | 1.0 | 0.00 | 0.00 | 0.00 | 78 | 1011.4 |
| 20260508031559 | 37 | 0 | 0.0 | 0.0 | 0.00 | 0.00 | 0.00 | 76 | 1011.4 |
| 20260508030108 | 37 | 0 | 0.0 | 0.0 | 0.00 | 0.00 | 0.00 | 76 | 1011.5 |
| 20260508024619 | 38 | 0 | 0.0 | 0.0 | 0.00 | 0.00 | 0.00 | 75 | 1011.6 |
| 20260508023102 | 39 | 0 | 0.0 | 1.0 | 0.00 | 0.00 | 0.00 | 75 | 1011.5 |
| 20260508021605 | 40 | 0 | 0.0 | 0.0 | 0.00 | 0.00 | 0.00 | 75 | 1011.4 |
| 20260508020111 | 41 | 0 | 0.0 | 1.0 | 0.00 | 0.00 | 0.00 | 74 | 1011.4 |
| 20260508014559 | 42 | 0 | 0.0 | 1.0 | 0.00 | 0.00 | 0.00 | 74 | 1011.3 |
| 20260508013059 | 43 | 0 | 0.0 | 1.0 | 0.00 | 0.00 | 0.00 | 73 | 1011.0 |
| 20260508011605 | 44 | 0 | 0.0 | 2.0 | 0.00 | 0.00 | 0.00 | 72 | 1010.8 |
| 20260508010057 | 45 | 0 | 0.0 | 3.0 | 0.00 | 0.00 | 0.00 | 72 | 1010.7 |
| 20260508004602 | 45 | 0 | 0.0 | 2.0 | 0.00 | 0.00 | 0.00 | 70 | 1010.5 |
| 20260508003058 | 46 | 0 | 0.0 | 2.0 | 0.00 | 0.00 | 0.00 | 71 | 1010.3 |
| 20260508001558 | 47 | 0 | 0.0 | 3.0 | 0.00 | 0.00 | 0.00 | 71 | 1010.1 |
| 20260508000057 | 49 | 0 | 0.0 | 2.0 | 0.00 | 0.00 | 0.00 | 69 | 1010.0 |
| 20260507234559 | 50 | 162 | 1.0 | 7.0 | 0.00 | 0.00 | 0.00 | 64 | 1009.8 |